Regional Weather Roundup
Issued by NWS Sioux Falls, SD

Home | Current Version | Previous Version | Text Only | Print | Product List | Glossary Off
Versions: 1 2 3 4 5 6 7 8 9 10 11 12 13 14 15 16 17 18 19 20 21 22 23 24 25 26 27 28 29 30 31 32 33 34 35 36 37 38 39 40 41 42 43 44 45 46 47 48 49 50

276
ASUS43 KFSD 262010
RWRFSD

WEATHER ROUNDUP FOR SE SOUTH DAKOTA/SW MINNESOTA/NW IOWA
NATIONAL WEATHER SERVICE SIOUX FALLS SD
300 PM CDT THU MAY 26 2016

NOTE: "FAIR" INDICATES FEW OR NO CLOUDS BELOW 12,000 FEET WITH NO
SIGNIFICANT WEATHER AND OR OBSTRUCTIONS TO VISIBILITY.


SDZ038>040-050-052>070-262100-
SOUTHEAST SOUTH DAKOTA

CITY           SKY/WX    TMP DP  RH WIND       PRES   REMARKS
BROOKINGS      FAIR      73  49  42 NW7       29.86F
CHAMBERLAIN    FAIR      76  58  53 S7        29.84F
HURON          FAIR      74  52  46 W5        29.84F
MADISON        FAIR      72  52  49 CALM      29.87F
MITCHELL       FAIR      73  53  49 S5        29.85F
SIOUX FALLS    PTSUNNY   75  54  47 CALM      29.85F
WINNER         FAIR      75  52  44 S10       29.83F
YANKTON        FAIR      73  55  53 E7        29.85S
$$

MNZ071-072-080-081-089-090-097-098-262100-
SOUTHWEST MINNESOTA

CITY           SKY/WX    TMP DP  RH WIND       PRES   REMARKS
FAIRMONT       FAIR      77  52  41 W7        29.87S
JACKSON        FAIR      75  45  33 W7        29.89F
LUVERNE        FAIR      73  48  40 NW3       29.88F
MARSHALL       FAIR      78  48  34 NW8G20    29.85R
MONTEVIDEO     FAIR      82  45  26 NW7G21    29.83F
PIPESTONE        N/A    N/A N/A N/A W5        29.88S
REDWOOD FALLS  FAIR      80  49  33 W12G20    29.83F
TRACY          FAIR      80  49  34 W6        29.86R
WINDOM         FAIR      79  48  34 CALM      29.88S
WORTHINGTON    FAIR      75  54  47 SW9       29.88F
$$

IAZ001>003-012>014-020>022-031-032-NEZ013-014-SDZ071-262100-
NORTHWEST IOWA

CITY           SKY/WX    TMP DP  RH WIND       PRES   REMARKS
CHEROKEE       FAIR      77  59  53 CALM      29.85F
DENISON        FAIR      81  61  50 VRB3G12   29.79F
ESTHERVILLE    FAIR      76  54  46 VRB6      29.88S
LE MARS        FAIR      77  59  53 CALM      29.86F
ORANGE CITY    FAIR      75  57  53 CALM      29.87F
SHELDON        FAIR      75  55  50 E5        29.86F
SIOUX CITY     FAIR      82  61  48 NE6       29.81F
SPENCER        FAIR      76  53  44 VRB3      29.88F
STORM LAKE       N/A     79  57  47 CALM      29.85F
$$

ABBREVIATIONS USED IN REMARKS
   TC - TEMPERATURE IN CELSIUS
  WCI - WIND CHILL INDEX
   HX - HEAT INDEX
  VSB - VISIBILITY





USA.gov is the U.S. government's official web portal to all federal, state and local government web resources and services.